AirNav   ProFlight Series 2 Aviation Headset
 
 910 users online  

3TX
(formerly XA68)
Akroville Airport
Slidell, Texas, USA

GOING TO SLIDELL?


FAA INFORMATION EFFECTIVE 16 JULY 2020

Location

FAA Identifier: 3TX
Lat/Long: 33-23-34.2623N 097-21-13.8500W
33-23.571038N 097-21.230833W
33.3928506,-97.3538472
(estimated)
Elevation: 895 ft. / 273 m (estimated)
From city: 3 miles NE of SLIDELL, TX
Time zone: UTC -5 (UTC -6 during Standard Time)
Zip code: 76238

Airport Operations

Airport use: Open to the public
Activation date: 03/2005
Control tower: no
ARTCC: FORT WORTH CENTER
FSS: FORT WORTH FLIGHT SERVICE STATION
NOTAMs facility: 3TX (NOTAM-D service available)
Attendance: IREG
Wind indicator: yes
Segmented circle: no

Airport Communications

CTAF: 122.9
WX ASOS at DTO (14 nm SE): 119.325 (940-383-8457)
WX AWOS-3 at LUD (14 nm SW): 118.225 (940-627-2365)
WX AWOS-3 at GLE (17 nm NE): 118.375 (940-612-3549)

Nearby radio navigation aids

VOR radial/distance  VOR name  Freq  Var
UKWr104/24.9BOWIE VORTAC117.1506E
FUZr338/31.4RANGER VORTAC115.7006E
TTTr327/35.1MAVERICK VOR/DME113.1006E
CVEr317/37.7COWBOY VOR/DME116.2006E

 
NDB name  Hdg/Dist  Freq  Var  ID
PINCK306/10.325704EDT -.. -

Airport Services

Runway Information

Runway 18/36

Dimensions: 3001 x 60 ft. / 915 x 18 m
Surface: turf, in good condition
Runway edge markings: RWY 18/36 OUTLINED WITH BARRELS PAINTED WHITE.
RUNWAY 18  RUNWAY 36
Latitude: 33-23.809167N33-23.316333N
Longitude: 097-21.236167W097-21.289833W
Elevation: 880.0 ft.878.0 ft.
Traffic pattern: leftleft

Runway 5/23

Dimensions: 1600 x 60 ft. / 488 x 18 m
Surface: turf, in good condition
Runway edge markings: RWY 05/23 OUTLINED WITH BARRELS PAINTED WHITE.
RUNWAY 5  RUNWAY 23
Latitude: 33-23.514833N33-23.658333N
Longitude: 097-21.302500W097-21.038500W
Elevation: 882.0 ft.882.0 ft.
Traffic pattern: leftleft

Airport Ownership and Management from official FAA records

Ownership: Privately-owned
Owner: JULIA A. & TONY L. WOOD
PO BOX 9
SLIDELL, TX 76267
Phone 817-658-4569
Manager: JULIA & TONY WOOD
PO BOX 9
SLIDELL, TX 76267
Phone 817-658-4569

Airport Operational Statistics

Aircraft based on the field: 5
Single engine airplanes: 5
    

Additional Remarks

ACROBATIC PRACTICE AREA CO-LOCATED WITH THIS ARPT.
BIRDS, COWS AND WILDLIFE INVOF RWYS.
LOOSE ROCKS ON RWY.
RADIO CTC RECOMMENDED PRIOR TO LDG FOR ADZY.
FOR CD CTC REGIONAL APCH AT 972-615-2799.

Instrument Procedures

There are no published instrument procedures at 3TX.

Some nearby airports with instrument procedures:

KDTO - Denton Enterprise Airport (14 nm SE)
KLUD - Decatur Municipal Airport (14 nm SW)
KGLE - Gainesville Municipal Airport (17 nm NE)
KAFW - Fort Worth Alliance Airport (24 nm S)
0F2 - Bowie Municipal Airport (25 nm NW)
 
Loc | Ops | Rwys | IFR | FBO | Links
Com | Nav | Svcs | Stats | Notes

City of Fort Worth
 
Area around 3TX (Akroville Airport)
 
Road maps at: MapQuest Bing Google
 
Aerial photo
WARNING: Photo may not be current or correct
Aerial photo of 3TX (Akroville Airport)
Photo by Julia Wood
Taken in May 2005

Do you have a better or more recent aerial photo of Akroville Airport that you would like to share? If so, please send us your photo.

 
Sectional chart

 
Airport distance calculator
Flying to Akroville Airport? Find the distance to fly.

From to 3TX

Sunrise and sunset
Times for 09-Aug-2020
 Local
(UTC-5)
 Zulu
(UTC)
Morning civil twilight06:2311:23
Sunrise06:4911:49
Sunset20:2001:20
Evening civil twilight20:4701:47

Current date and time
Zulu (UTC)  10-Aug-2020 02:48:08
Local (UTC-5)  09-Aug-2020 21:48:08
 
METAR
KDTO 
14nm SE 
100153Z 14006KT 10SM CLR 33/19 A2997 RMK AO2 SLP136 T03280189
KLUD 
14nm SW 
118.22 940-927-2365
100235Z AUTO 14007KT 7SM CLR 32/18 A2999 RMK AO2 T03160181
KGLE 
17nm NE 
100235Z AUTO 15007KT 10SM CLR 29/19 A3000 RMK AO2 T02930194 PWINO
K0F2 
25nm NW 
100235Z AUTO 13004KT 10SM CLR 29/20 A2998 RMK AO2 T02930195
KAFW 
26nm S 
100153Z 15011KT 10SM CLR 34/18 A2996 RMK AO2 SLP127 T03440183
KXBP 
27nm SW 
100235Z AUTO 14006KT 10SM CLR 31/18 A2998 RMK AO2 T03100178
TAF
KAFW 
26nm S 
092103Z 0921/1018 18010G20KT P6SM FEW070 FEW250 FM100000 18011KT P6SM FEW250
NOTAMs
Click for the latest NOTAMs
NOTAMs are issued by the DoD/FAA and will open in a separate window not controlled by AirNav.

 

 
 

Would you like to see your business listed on this page?

 If your business provides an interesting product or service to pilots, flight crews, aircraft, or users of the Akroville Airport, you should consider listing it here.  To start the listing process, click on the button below
 
Add a business
 

Other Pages about Akroville Airport

www.akroville.com
 
Update a link
 
Copyright © AirNav, LLC. All rights reserved. Privacy Policy  Contact